Stockton Lake Weather Center

Moon Phase Calendar



Stockton Lake Water Level
Online Cameras

 


      

Current Conditions in Stockton
12/7/2022 11:26:14 AM

46°F
Feels Like 45
Clouds
Humidity
99%
Pressure
30.27"
Wind
3.3 mph (ESE)
Dew Point
46°F
UV Index
2/10 (Low)
Visibility
6 mi

Hourly Forecast

Date & Time Wed, Dec 7
11:00 AM
Wed, Dec 7
12:00 PM
Wed, Dec 7
1:00 PM
Wed, Dec 7
2:00 PM
Wed, Dec 7
3:00 PM
Wed, Dec 7
4:00 PM
Wed, Dec 7
5:00 PM
Wed, Dec 7
6:00 PM
Wed, Dec 7
7:00 PM
Wed, Dec 7
8:00 PM
Wed, Dec 7
9:00 PM
Wed, Dec 7
10:00 PM
Wed, Dec 7
11:00 PM
Thu, Dec 8
12:00 AM
Thu, Dec 8
1:00 AM
Thu, Dec 8
2:00 AM
Thu, Dec 8
3:00 AM
Thu, Dec 8
4:00 AM
Thu, Dec 8
5:00 AM
Thu, Dec 8
6:00 AM
Thu, Dec 8
7:00 AM
Thu, Dec 8
8:00 AM
Thu, Dec 8
9:00 AM
Thu, Dec 8
10:00 AM
Thu, Dec 8
11:00 AM
Thu, Dec 8
12:00 PM
Thu, Dec 8
1:00 PM
Thu, Dec 8
2:00 PM
Thu, Dec 8
3:00 PM
Thu, Dec 8
4:00 PM
Thu, Dec 8
5:00 PM
Thu, Dec 8
6:00 PM
Thu, Dec 8
7:00 PM
Thu, Dec 8
8:00 PM
Thu, Dec 8
9:00 PM
Thu, Dec 8
10:00 PM
Thu, Dec 8
11:00 PM
Fri, Dec 9
12:00 AM
Fri, Dec 9
1:00 AM
Fri, Dec 9
2:00 AM
Fri, Dec 9
3:00 AM
Fri, Dec 9
4:00 AM
Fri, Dec 9
5:00 AM
Fri, Dec 9
6:00 AM
Fri, Dec 9
7:00 AM
Fri, Dec 9
8:00 AM
Fri, Dec 9
9:00 AM
Fri, Dec 9
10:00 AM
Condition
Clouds

Clouds

Clouds

Clouds

Clouds

Clouds

Clouds

Clouds

Clouds

Clouds

Clouds

Clouds

Clouds

Rain

Rain

Rain

Rain

Rain

Rain

Rain

Rain

Clouds

Clouds

Clouds

Clouds

Clouds

Clouds

Clouds

Clouds

Clouds

Clouds

Clouds

Clouds

Clouds

Rain

Rain

Clouds

Clouds

Clear

Clear

Clear

Clouds

Clouds

Clouds

Clouds

Clouds

Clouds

Clouds
Temperature 46°F47°F49°F52°F54°F54°F51°F52°F51°F51°F51°F50°F50°F51°F51°F50°F50°F50°F51°F51°F51°F52°F54°F57°F61°F61°F62°F65°F65°F63°F61°F60°F60°F60°F58°F57°F57°F57°F53°F51°F49°F46°F44°F42°F41°F41°F44°F46°F
Feels Like 45°F46°F49°F50°F52°F53°F50°F50°F50°F50°F50°F49°F47°F50°F50°F49°F49°F50°F50°F50°F51°F52°F54°F57°F60°F61°F61°F64°F64°F62°F61°F60°F60°F60°F58°F56°F57°F57°F53°F50°F45°F41°F39°F37°F36°F36°F38°F40°F
Cloudiness 100%100%100%100%100%100%100%100%100%100%100%100%100%100%100%100%100%100%100%100%100%100%93%93%92%93%100%82%85%88%91%92%100%100%72%58%47%50%6%9%7%11%11%16%58%74%83%86%
Visibility 6 mi6 mi6 mi6 mi6 mi6 mi6 mi6 mi6 mi6 mi6 mi6 mi6 mi6 mi5 mi2 mi3 mi2 mi2 mi2 mi6 mi6 mi6 mi6 mi6 mi6 mi6 mi6 mi6 mi6 mi6 mi6 mi6 mi6 mi6 mi6 mi6 mi6 mi6 mi6 mi6 mi6 mi6 mi6 mi6 mi6 mi6 mi6 mi
Precipitation 0%0%0%0%0%0%0%0%0%0%0%0%0%26%84%100%100%100%100%100%100%80%80%80%80%80%4%2%0%0%0%0%6%17%41%37%20%17%0%0%0%0%0%0%0%0%0%0%
Humidity 99%93%86%79%74%74%80%80%81%82%83%86%87%88%93%97%99%99%98%99%99%96%92%88%83%83%84%76%75%81%86%90%90%89%92%94%94%88%92%95%92%85%80%81%83%84%77%72%
Dew Point 46°F45°F45°F45°F46°F46°F45°F45°F45°F46°F46°F46°F46°F48°F48°F49°F50°F50°F50°F50°F51°F51°F52°F54°F55°F56°F57°F57°F56°F57°F57°F57°F57°F57°F55°F55°F55°F53°F51°F49°F46°F42°F38°F37°F36°F36°F37°F37°F
Pressure 30.27"30.27"30.24"30.24"30.21"30.21"30.21"30.21"30.24"30.24"30.21"30.21"30.21"30.21"30.15"30.15"30.15"30.12"30.09"30.09"30.06"30.06"30.09"30.06"30.06"30"29.97"29.94"29.94"29.94"29.94"29.97"29.97"29.97"29.97"29.94"29.94"29.97"30"30.03"30.03"30.06"30.06"30.09"30.12"30.12"30.12"30.15"
Wind Speed 3.3 mph3.3 mph1.6 mph0.4 mph2.6 mph4.9 mph5.4 mph6.4 mph6 mph6.6 mph6.8 mph6.6 mph6 mph5.9 mph9 mph7 mph6.1 mph10.9 mph6.8 mph9 mph13.4 mph9.3 mph6.2 mph8.7 mph9.2 mph8.6 mph7 mph9.1 mph9.5 mph6.3 mph6.6 mph6.4 mph5.9 mph6 mph8.3 mph9 mph10.8 mph14.9 mph13.1 mph9.6 mph9.4 mph8.9 mph8.5 mph8.4 mph8.3 mph8.2 mph10.8 mph11.9 mph
Wind
Direction
112°
ESE
85°
E
199°
SSW
310°
NW
38°
NE
54°
NE
55°
NE
61°
ENE
72°
ENE
85°
E
85°
E
98°
E
100°
E
93°
E
108°
ESE
104°
ESE
77°
ENE
93°
E
93°
E
92°
E
106°
ESE
131°
SE
157°
SSE
162°
SSE
187°
S
203°
SSW
218°
SW
230°
SW
226°
SW
224°
SW
222°
SW
216°
SW
202°
SSW
189°
S
203°
SSW
203°
SSW
216°
SW
252°
WSW
280°
W
292°
WNW
282°
WNW
278°
W
273°
W
268°
W
267°
W
271°
W
284°
WNW
292°
WNW

Daily Forecast

Date High Low Precip. Humidity
Today
Dec 7

Clouds
54 °F
41 °F
0%
93%
Thursday
Dec 8

Rain
65 °F
50 °F
100%
83%
Friday
Dec 9

Clouds
57 °F
41 °F
17%
66%
Saturday
Dec 10

Rain
56 °F
42 °F
100%
87%
Sunday
Dec 11

Clouds
52 °F
36 °F
0%
60%
Monday
Dec 12

Rain
57 °F
40 °F
86%
68%
Tuesday
Dec 13

Rain
63 °F
50 °F
100%
96%
Wednesday
Dec 14

Clouds
49 °F
35 °F
31%
67%
Thursday
Dec 15

Clouds
38 °F
29 °F
0%
58%
Friday
Dec 16

Clouds
35 °F
25 °F
0%
47%
Saturday
Dec 17

Clouds
40 °F
25 °F
0%
34%
Sunday
Dec 18

Clouds
47 °F
25 °F
0%
51%
Monday
Dec 19

Rain
50 °F
35 °F
34%
79%
Tuesday
Dec 20

Rain
50 °F
45 °F
99%
87%
Wednesday
Dec 21

Rain
55 °F
48 °F
97%
94%
Thursday
Dec 22

Rain
52 °F
32 °F
100%
94%

Temperature 8-14 Day Outlook



Precipitation 8-14 Day Outlook






About Us
Contact Us
Site Map
Search Site
Advertise With Us
   
Stockton.USLakes.info
THE STOCKTON LAKE WEBSITE

Copyright 2022, Lakes Online
Privacy    |    Legal